Time,TemperatureF,DewpointF,PressureIn,WindDirection,WindDirectionDegrees,WindSpeedMPH,WindSpeedGustMPH,Humidity,HourlyPrecipIn,Conditions,Clouds,dailyrainin,SoftwareType,DateUTC
2013-08-15 00:00:00,52.3,47.9,30.05,West,272,0.0,13.0,85,0.00,,,0.00,Wunderground v.1.15,2013-08-15 04:00:00,
2013-08-15 00:05:00,52.2,48.1,30.05,West,271,0.0,13.0,86,0.00,,,0.00,Wunderground v.1.15,2013-08-15 04:05:00,
2013-08-15 00:10:00,52.1,47.7,30.05,West,271,0.0,13.0,85,0.00,,,0.00,Wunderground v.1.15,2013-08-15 04:10:00,
2013-08-15 00:15:00,51.9,47.8,30.05,West,271,0.0,13.0,86,0.00,,,0.00,Wunderground v.1.15,2013-08-15 04:15:00,
2013-08-15 00:20:00,51.8,47.7,30.05,West,271,0.0,13.0,86,0.00,,,0.00,Wunderground v.1.15,2013-08-15 04:20:00,
2013-08-15 00:25:00,51.7,47.6,30.05,West,271,0.0,13.0,86,0.00,,,0.00,Wunderground v.1.15,2013-08-15 04:25:00,
2013-08-15 00:30:00,51.6,47.9,30.05,West,271,0.0,13.0,87,0.00,,,0.00,Wunderground v.1.15,2013-08-15 04:30:00,
2013-08-15 00:35:00,51.6,47.9,30.05,West,272,0.0,13.0,87,0.00,,,0.00,Wunderground v.1.15,2013-08-15 04:35:00,
2013-08-15 00:40:00,51.6,47.9,30.05,West,271,0.0,13.0,87,0.00,,,0.00,Wunderground v.1.15,2013-08-15 04:40:00,
2013-08-15 00:50:00,51.4,47.7,30.05,West,271,0.0,13.0,87,0.00,,,0.00,Wunderground v.1.15,2013-08-15 04:50:00,
2013-08-15 00:55:00,51.3,47.6,30.05,West,271,0.0,13.0,87,0.00,,,0.00,Wunderground v.1.15,2013-08-15 04:55:00,
2013-08-15 01:00:00,51.2,47.5,30.06,West,272,0.0,13.0,87,0.00,,,0.00,Wunderground v.1.15,2013-08-15 05:00:00,
2013-08-15 01:05:00,51.1,47.7,30.05,West,271,0.0,13.0,88,0.00,,,0.00,Wunderground v.1.15,2013-08-15 05:05:00,
2013-08-15 01:10:00,50.9,47.5,30.05,West,271,0.0,13.0,88,0.00,,,0.00,Wunderground v.1.15,2013-08-15 05:10:00,
2013-08-15 01:15:00,50.8,47.4,30.05,West,271,0.0,13.0,88,0.00,,,0.00,Wunderground v.1.15,2013-08-15 05:15:00,
2013-08-15 01:25:00,50.6,47.2,30.05,West,271,0.0,13.0,88,0.00,,,0.00,Wunderground v.1.15,2013-08-15 05:25:00,
2013-08-15 01:30:00,50.5,47.1,30.05,West,271,0.0,13.0,88,0.00,,,0.00,Wunderground v.1.15,2013-08-15 05:30:00,
2013-08-15 01:35:00,50.5,47.4,30.05,West,271,0.0,13.0,89,0.00,,,0.00,Wunderground v.1.15,2013-08-15 05:35:00,
2013-08-15 01:40:00,50.3,46.9,30.05,West,271,0.0,13.0,88,0.00,,,0.00,Wunderground v.1.15,2013-08-15 05:40:00,
2013-08-15 01:45:00,50.2,46.8,30.06,West,271,0.0,13.0,88,0.00,,,0.00,Wunderground v.1.15,2013-08-15 05:45:00,
2013-08-15 01:50:00,50.0,46.9,30.06,West,271,0.0,13.0,89,0.00,,,0.00,Wunderground v.1.15,2013-08-15 05:50:00,
2013-08-15 01:55:00,49.9,46.8,30.05,West,271,0.0,13.0,89,0.00,,,0.00,Wunderground v.1.15,2013-08-15 05:55:00,
2013-08-15 02:00:00,49.8,46.7,30.05,West,272,0.0,13.0,89,0.00,,,0.00,Wunderground v.1.15,2013-08-15 06:00:00,
2013-08-15 02:05:00,49.7,46.6,30.06,West,272,0.0,13.0,89,0.00,,,0.00,Wunderground v.1.15,2013-08-15 06:05:00,
2013-08-15 02:15:00,49.6,46.8,30.05,West,272,0.0,13.0,90,0.00,,,0.00,Wunderground v.1.15,2013-08-15 06:15:00,
2013-08-15 02:20:00,49.6,46.8,30.05,West,271,0.0,13.0,90,0.00,,,0.00,Wunderground v.1.15,2013-08-15 06:20:00,
2013-08-15 02:25:00,49.4,46.6,30.05,West,272,0.0,13.0,90,0.00,,,0.00,Wunderground v.1.15,2013-08-15 06:25:00,
2013-08-15 02:30:00,49.3,46.5,30.05,West,272,0.0,13.0,90,0.00,,,0.00,Wunderground v.1.15,2013-08-15 06:30:00,
2013-08-15 09:40:00,64.4,55.6,30.10,West,273,0.0,0.0,73,0.00,,,0.00,Wunderground v.1.15,2013-08-15 13:40:00,
2013-08-15 09:50:00,65.1,55.8,30.10,West,272,0.0,2.0,72,0.00,,,0.00,Wunderground v.1.15,2013-08-15 13:50:00,
2013-08-15 09:55:00,65.5,55.8,30.10,West,273,0.0,2.0,71,0.00,,,0.00,Wunderground v.1.15,2013-08-15 13:55:00,
2013-08-15 10:00:00,66.0,55.9,30.10,West,271,0.0,0.0,70,0.00,,,0.00,Wunderground v.1.15,2013-08-15 14:00:00,
2013-08-15 10:05:00,66.6,56.5,30.10,West,271,0.0,0.0,70,0.00,,,0.00,Wunderground v.1.15,2013-08-15 14:05:00,
2013-08-15 10:10:00,67.0,55.3,30.10,West,269,0.0,3.0,66,0.00,,,0.00,Wunderground v.1.15,2013-08-15 14:10:00,
2013-08-15 10:20:00,67.6,55.4,30.10,SW,216,1.0,1.0,65,0.00,,,0.00,Wunderground v.1.15,2013-08-15 14:20:00,
2013-08-15 10:25:00,67.6,55.0,30.10,West,261,1.0,1.0,64,0.00,,,0.00,Wunderground v.1.15,2013-08-15 14:25:00,
2013-08-15 10:35:00,68.3,56.1,30.10,WNW,287,1.0,4.0,65,0.00,,,0.00,Wunderground v.1.15,2013-08-15 14:35:00,
2013-08-15 10:40:00,68.9,56.6,30.09,WNW,285,1.0,4.0,65,0.00,,,0.00,Wunderground v.1.15,2013-08-15 14:40:00,
2013-08-15 10:45:00,69.5,57.2,30.09,West,270,1.0,4.0,65,0.00,,,0.00,Wunderground v.1.15,2013-08-15 14:45:00,
2013-08-15 10:55:00,69.8,57.5,30.09,West,261,1.0,1.0,65,0.00,,,0.00,Wunderground v.1.15,2013-08-15 14:55:00,
2013-08-15 11:05:00,69.7,57.8,30.09,WNW,297,1.0,4.0,66,0.00,,,0.00,Wunderground v.1.15,2013-08-15 15:05:00,
2013-08-15 11:10:00,69.6,56.4,30.09,WNW,283,2.0,4.0,63,0.00,,,0.00,Wunderground v.1.15,2013-08-15 15:10:00,
2013-08-15 11:15:00,69.7,55.6,30.09,West,266,2.0,2.0,61,0.00,,,0.00,Wunderground v.1.15,2013-08-15 15:15:00,
2013-08-15 11:25:00,70.4,57.2,30.09,WSW,257,1.0,4.0,63,0.00,,,0.00,Wunderground v.1.15,2013-08-15 15:25:00,
2013-08-15 11:30:00,70.5,57.3,30.09,West,270,1.0,4.0,63,0.00,,,0.00,Wunderground v.1.15,2013-08-15 15:30:00,
2013-08-15 11:35:00,70.7,57.5,30.09,West,269,1.0,1.0,63,0.00,,,0.00,Wunderground v.1.15,2013-08-15 15:35:00,
2013-08-15 11:45:00,70.3,54.8,30.08,WSW,257,2.0,2.0,58,0.00,,,0.00,Wunderground v.1.15,2013-08-15 15:45:00,
2013-08-15 11:50:00,70.0,55.9,30.08,West,273,2.0,7.0,61,0.00,,,0.00,Wunderground v.1.15,2013-08-15 15:50:00,
2013-08-15 11:55:00,70.2,55.2,30.08,NW,309,2.0,2.0,59,0.00,,,0.00,Wunderground v.1.15,2013-08-15 15:55:00,
2013-08-15 12:00:00,70.6,58.7,30.08,West,265,2.0,2.0,66,0.00,,,0.00,Wunderground v.1.15,2013-08-15 16:00:00,
2013-08-15 12:10:00,70.7,54.7,30.08,West,260,2.0,9.0,57,0.00,,,0.00,Wunderground v.1.15,2013-08-15 16:10:00,
2013-08-15 12:15:00,71.6,57.0,30.08,WSW,240,2.0,9.0,60,0.00,,,0.00,Wunderground v.1.15,2013-08-15 16:15:00,
2013-08-15 12:20:00,71.3,55.8,30.08,West,273,1.0,1.0,58,0.00,,,0.00,Wunderground v.1.15,2013-08-15 16:20:00,
2013-08-15 12:30:00,71.5,55.0,30.08,WNW,288,1.0,4.0,56,0.00,,,0.00,Wunderground v.1.15,2013-08-15 16:30:00,
2013-08-15 12:35:00,71.8,54.8,30.08,NW,304,2.0,8.0,55,0.00,,,0.00,Wunderground v.1.15,2013-08-15 16:35:00,
2013-08-15 12:40:00,72.2,55.6,30.08,West,277,3.0,5.0,56,0.00,,,0.00,Wunderground v.1.15,2013-08-15 16:40:00,
2013-08-15 12:45:00,72.6,54.0,30.08,WNW,290,3.0,5.0,52,0.00,,,0.00,Wunderground v.1.15,2013-08-15 16:45:00,
2013-08-15 12:55:00,71.8,54.8,30.07,West,273,3.0,3.0,55,0.00,,,0.00,Wunderground v.1.15,2013-08-15 16:55:00,
2013-08-15 13:00:00,72.6,57.4,30.07,West,281,2.0,2.0,59,0.00,,,0.00,Wunderground v.1.15,2013-08-15 17:00:00,
2013-08-15 13:10:00,72.7,54.6,30.07,NW,312,1.0,6.0,53,0.00,,,0.00,Wunderground v.1.15,2013-08-15 17:10:00,
2013-08-15 13:15:00,72.9,56.8,30.07,West,276,2.0,6.0,57,0.00,,,0.00,Wunderground v.1.15,2013-08-15 17:15:00,
2013-08-15 13:20:00,72.9,55.8,30.07,WSW,254,1.0,1.0,55,0.00,,,0.00,Wunderground v.1.15,2013-08-15 17:20:00,
2013-08-15 13:25:00,73.0,55.9,30.06,NNW,331,2.0,2.0,55,0.00,,,0.00,Wunderground v.1.15,2013-08-15 17:25:00,
2013-08-15 13:35:00,71.3,55.3,30.06,WNW,299,2.0,5.0,57,0.00,,,0.00,Wunderground v.1.15,2013-08-15 17:35:00,
2013-08-15 13:45:00,70.4,54.0,30.06,WNW,286,1.0,4.0,56,0.00,,,0.00,Wunderground v.1.15,2013-08-15 17:45:00,
2013-08-15 13:50:00,70.2,54.7,30.06,WNW,283,1.0,4.0,58,0.00,,,0.00,Wunderground v.1.15,2013-08-15 17:50:00,
2013-08-15 14:00:00,71.3,58.1,30.06,NW,311,1.0,5.0,63,0.00,,,0.00,Wunderground v.1.15,2013-08-15 18:00:00,
2013-08-15 14:05:00,71.6,54.6,30.06,West,271,1.0,5.0,55,0.00,,,0.00,Wunderground v.1.15,2013-08-15 18:05:00,
2013-08-15 14:10:00,71.4,54.9,30.06,WNW,292,1.0,6.0,56,0.00,,,0.00,Wunderground v.1.15,2013-08-15 18:10:00,
2013-08-15 14:15:00,72.7,58.0,30.06,West,279,1.0,6.0,60,0.00,,,0.00,Wunderground v.1.15,2013-08-15 18:15:00,
2013-08-15 14:30:00,73.9,56.7,30.05,WNW,292,2.0,2.0,55,0.00,,,0.00,Wunderground v.1.15,2013-08-15 18:30:00,
2013-08-15 14:35:00,73.3,55.1,30.05,West,259,2.0,4.0,53,0.00,,,0.00,Wunderground v.1.15,2013-08-15 18:35:00,
2013-08-15 14:45:00,73.9,56.7,30.05,West,281,3.0,4.0,55,0.00,,,0.00,Wunderground v.1.15,2013-08-15 18:45:00,
2013-08-15 14:50:00,74.0,56.3,30.05,SW,214,3.0,3.0,54,0.00,,,0.00,Wunderground v.1.15,2013-08-15 18:50:00,
2013-08-15 15:00:00,73.3,54.6,30.05,West,275,2.0,2.0,52,0.00,,,0.00,Wunderground v.1.15,2013-08-15 19:00:00,
2013-08-15 15:15:00,73.3,55.1,30.04,WNW,298,4.0,4.0,53,0.00,,,0.00,Wunderground v.1.15,2013-08-15 19:15:00,
2013-08-15 15:20:00,74.0,55.3,30.04,WSW,244,3.0,4.0,52,0.00,,,0.00,Wunderground v.1.15,2013-08-15 19:20:00,
2013-08-15 15:30:00,73.7,55.5,30.04,SW,228,1.0,4.0,53,0.00,,,0.00,Wunderground v.1.15,2013-08-15 19:30:00,
2013-08-15 15:35:00,74.3,53.3,30.04,West,276,2.0,4.0,48,0.00,,,0.00,Wunderground v.1.15,2013-08-15 19:35:00,
2013-08-15 15:40:00,74.1,55.9,30.04,West,267,3.0,4.0,53,0.00,,,0.00,Wunderground v.1.15,2013-08-15 19:40:00,
2013-08-15 15:50:00,74.3,54.5,30.04,WNW,287,2.0,4.0,50,0.00,,,0.00,Wunderground v.1.15,2013-08-15 19:50:00,
2013-08-15 15:55:00,74.2,54.9,30.04,West,275,2.0,7.0,51,0.00,,,0.00,Wunderground v.1.15,2013-08-15 19:55:00,
2013-08-15 16:00:00,73.6,54.4,30.04,WNW,292,3.0,3.0,51,0.00,,,0.00,Wunderground v.1.15,2013-08-15 20:00:00,
2013-08-15 16:10:00,73.3,53.5,30.04,WNW,284,3.0,5.0,50,0.00,,,0.00,Wunderground v.1.15,2013-08-15 20:10:00,
2013-08-15 16:25:00,73.7,53.9,30.04,West,261,3.0,4.0,50,0.00,,,0.00,Wunderground v.1.15,2013-08-15 20:25:00,
2013-08-15 16:40:00,73.6,54.9,30.04,SSE,153,1.0,1.0,52,0.00,,,0.00,Wunderground v.1.15,2013-08-15 20:40:00,
2013-08-15 16:45:00,73.2,54.5,30.04,West,280,2.0,2.0,52,0.00,,,0.00,Wunderground v.1.15,2013-08-15 20:45:00,
2013-08-15 16:55:00,73.2,53.4,30.03,West,281,2.0,7.0,50,0.00,,,0.00,Wunderground v.1.15,2013-08-15 20:55:00,
2013-08-15 17:00:00,73.1,54.4,30.03,West,276,1.0,4.0,52,0.00,,,0.00,Wunderground v.1.15,2013-08-15 21:00:00,
2013-08-15 17:05:00,73.1,54.4,30.03,WNW,293,1.0,4.0,52,0.00,,,0.00,Wunderground v.1.15,2013-08-15 21:05:00,
2013-08-15 17:15:00,73.2,54.0,30.03,SW,225,2.0,4.0,51,0.00,,,0.00,Wunderground v.1.15,2013-08-15 21:15:00,
2013-08-15 17:25:00,72.9,53.7,30.03,WSW,257,1.0,5.0,51,0.00,,,0.00,Wunderground v.1.15,2013-08-15 21:25:00,
2013-08-15 17:30:00,73.1,53.4,30.03,West,261,1.0,1.0,50,0.00,,,0.00,Wunderground v.1.15,2013-08-15 21:30:00,
2013-08-15 17:40:00,73.4,52.5,30.03,WSW,243,2.0,2.0,48,0.00,,,0.00,Wunderground v.1.15,2013-08-15 21:40:00,
2013-08-15 17:45:00,73.1,52.8,30.04,West,269,2.0,4.0,49,0.00,,,0.00,Wunderground v.1.15,2013-08-15 21:45:00,
2013-08-15 17:55:00,72.7,53.5,30.03,West,272,2.0,4.0,51,0.00,,,0.00,Wunderground v.1.15,2013-08-15 21:55:00,
2013-08-15 18:05:00,72.1,53.0,30.04,West,263,1.0,4.0,51,0.00,,,0.00,Wunderground v.1.15,2013-08-15 22:05:00,
2013-08-15 18:10:00,72.2,54.6,30.04,West,273,0.0,4.0,54,0.00,,,0.00,Wunderground v.1.15,2013-08-15 22:10:00,
2013-08-15 18:20:00,71.7,54.2,30.04,West,271,1.0,1.0,54,0.00,,,0.00,Wunderground v.1.15,2013-08-15 22:20:00,
2013-08-15 18:25:00,71.8,53.2,30.04,West,263,1.0,2.0,52,0.00,,,0.00,Wunderground v.1.15,2013-08-15 22:25:00,
2013-08-15 18:30:00,71.7,53.1,30.04,WNW,287,1.0,1.0,52,0.00,,,0.00,Wunderground v.1.15,2013-08-15 22:30:00,
2013-08-15 18:35:00,71.4,52.9,30.03,West,270,2.0,2.0,52,0.00,,,0.00,Wunderground v.1.15,2013-08-15 22:35:00,
2013-08-15 18:40:00,71.3,53.3,30.04,West,281,2.0,2.0,53,0.00,,,0.00,Wunderground v.1.15,2013-08-15 22:40:00,
2013-08-15 18:45:00,71.1,53.1,30.04,West,271,1.0,4.0,53,0.00,,,0.00,Wunderground v.1.15,2013-08-15 22:45:00,
2013-08-15 18:55:00,70.2,53.3,30.04,West,274,1.0,4.0,55,0.00,,,0.00,Wunderground v.1.15,2013-08-15 22:55:00,
2013-08-15 19:00:00,69.7,52.8,30.04,West,280,1.0,1.0,55,0.00,,,0.00,Wunderground v.1.15,2013-08-15 23:00:00,
2013-08-15 19:05:00,69.3,52.4,30.04,West,275,1.0,4.0,55,0.00,,,0.00,Wunderground v.1.15,2013-08-15 23:05:00,
2013-08-15 19:10:00,68.9,52.1,30.04,West,281,1.0,1.0,55,0.00,,,0.00,Wunderground v.1.15,2013-08-15 23:10:00,
2013-08-15 19:15:00,68.6,51.3,30.04,West,271,2.0,5.0,54,0.00,,,0.00,Wunderground v.1.15,2013-08-15 23:15:00,
2013-08-15 19:25:00,68.0,51.7,30.04,West,275,1.0,4.0,56,0.00,,,0.00,Wunderground v.1.15,2013-08-15 23:25:00,
2013-08-15 19:30:00,67.8,52.5,30.05,West,275,1.0,1.0,58,0.00,,,0.00,Wunderground v.1.15,2013-08-15 23:30:00,
2013-08-15 19:40:00,67.0,52.2,30.05,West,275,0.0,4.0,59,0.00,,,0.00,Wunderground v.1.15,2013-08-15 23:40:00,
2013-08-15 19:45:00,66.8,52.5,30.05,West,277,1.0,4.0,60,0.00,,,0.00,Wunderground v.1.15,2013-08-15 23:45:00,
2013-08-15 19:55:00,66.2,52.3,30.05,West,260,0.0,4.0,61,0.00,,,0.00,Wunderground v.1.15,2013-08-15 23:55:00,
2013-08-15 20:00:00,65.9,52.5,30.06,West,260,0.0,4.0,62,0.00,,,0.00,Wunderground v.1.15,2013-08-16 00:00:00,
2013-08-15 20:05:00,65.5,52.6,30.06,West,260,0.0,4.0,63,0.00,,,0.00,Wunderground v.1.15,2013-08-16 00:05:00,
2013-08-15 20:15:00,64.5,52.5,30.06,West,260,0.0,4.0,65,0.00,,,0.00,Wunderground v.1.15,2013-08-16 00:15:00,
2013-08-15 20:20:00,64.0,52.4,30.06,West,260,0.0,4.0,66,0.00,,,0.00,Wunderground v.1.15,2013-08-16 00:20:00,
2013-08-15 20:25:00,63.6,52.0,30.06,West,260,0.0,4.0,66,0.00,,,0.00,Wunderground v.1.15,2013-08-16 00:25:00,
2013-08-15 20:30:00,63.2,52.1,30.07,West,260,0.0,4.0,67,0.00,,,0.00,Wunderground v.1.15,2013-08-16 00:30:00,
2013-08-15 20:35:00,63.0,51.9,30.06,West,260,0.0,4.0,67,0.00,,,0.00,Wunderground v.1.15,2013-08-16 00:35:00,
2013-08-15 20:40:00,62.6,51.9,30.07,West,260,0.0,4.0,68,0.00,,,0.00,Wunderground v.1.15,2013-08-16 00:40:00,
2013-08-15 20:50:00,61.7,52.2,30.07,West,260,0.0,4.0,71,0.00,,,0.00,Wunderground v.1.15,2013-08-16 00:50:00,
2013-08-15 20:55:00,61.3,52.2,30.07,West,260,0.0,4.0,72,0.00,,,0.00,Wunderground v.1.15,2013-08-16 00:55:00,
2013-08-15 21:00:00,60.9,51.8,30.07,West,260,0.0,4.0,72,0.00,,,0.00,Wunderground v.1.15,2013-08-16 01:00:00,
2013-08-15 21:10:00,60.1,51.4,30.08,West,260,0.0,4.0,73,0.00,,,0.00,Wunderground v.1.15,2013-08-16 01:10:00,
2013-08-15 21:15:00,59.9,51.6,30.07,West,260,0.0,4.0,74,0.00,,,0.00,Wunderground v.1.15,2013-08-16 01:15:00,
2013-08-15 21:25:00,59.6,51.7,30.08,West,260,0.0,4.0,75,0.00,,,0.00,Wunderground v.1.15,2013-08-16 01:25:00,
2013-08-15 21:30:00,59.5,51.6,30.08,West,260,0.0,4.0,75,0.00,,,0.00,Wunderground v.1.15,2013-08-16 01:30:00,
2013-08-15 21:40:00,59.1,51.5,30.08,West,260,0.0,4.0,76,0.00,,,0.00,Wunderground v.1.15,2013-08-16 01:40:00,
2013-08-15 21:45:00,59.0,51.4,30.08,West,260,0.0,4.0,76,0.00,,,0.00,Wunderground v.1.15,2013-08-16 01:45:00,
2013-08-15 21:55:00,58.7,51.5,30.09,West,260,0.0,4.0,77,0.00,,,0.00,Wunderground v.1.15,2013-08-16 01:55:00,
2013-08-15 22:05:00,58.3,51.1,30.09,West,260,0.0,4.0,77,0.00,,,0.00,Wunderground v.1.15,2013-08-16 02:05:00,
2013-08-15 22:10:00,58.1,51.3,30.09,West,260,0.0,4.0,78,0.00,,,0.00,Wunderground v.1.15,2013-08-16 02:10:00,
2013-08-15 22:15:00,57.8,51.0,30.09,West,260,0.0,4.0,78,0.00,,,0.00,Wunderground v.1.15,2013-08-16 02:15:00,
2013-08-15 22:20:00,57.7,51.2,30.08,West,260,0.0,4.0,79,0.00,,,0.00,Wunderground v.1.15,2013-08-16 02:20:00,
2013-08-15 22:25:00,57.5,51.0,30.08,West,260,0.0,4.0,79,0.00,,,0.00,Wunderground v.1.15,2013-08-16 02:25:00,
2013-08-15 22:30:00,57.4,51.3,30.08,West,260,0.0,4.0,80,0.00,,,0.00,Wunderground v.1.15,2013-08-16 02:30:00,
2013-08-15 22:40:00,57.1,51.0,30.09,West,260,0.0,4.0,80,0.00,,,0.00,Wunderground v.1.15,2013-08-16 02:40:00,
2013-08-15 22:45:00,56.9,51.1,30.09,West,260,0.0,4.0,81,0.00,,,0.00,Wunderground v.1.15,2013-08-16 02:45:00,
2013-08-15 22:50:00,56.8,51.0,30.09,West,260,0.0,4.0,81,0.00,,,0.00,Wunderground v.1.15,2013-08-16 02:50:00,
2013-08-15 22:55:00,56.7,50.9,30.09,West,260,0.0,4.0,81,0.00,,,0.00,Wunderground v.1.15,2013-08-16 02:55:00,
2013-08-15 23:00:00,56.6,51.2,30.09,West,260,0.0,4.0,82,0.00,,,0.00,Wunderground v.1.15,2013-08-16 03:00:00,
2013-08-15 23:05:00,56.5,51.1,30.09,West,260,0.0,4.0,82,0.00,,,0.00,Wunderground v.1.15,2013-08-16 03:05:00,
2013-08-15 23:10:00,56.3,50.9,30.09,West,260,0.0,4.0,82,0.00,,,0.00,Wunderground v.1.15,2013-08-16 03:10:00,
2013-08-15 23:20:00,56.1,50.7,30.09,West,260,0.0,4.0,82,0.00,,,0.00,Wunderground v.1.15,2013-08-16 03:20:00,
2013-08-15 23:25:00,56.0,50.9,30.09,West,260,0.0,4.0,83,0.00,,,0.00,Wunderground v.1.15,2013-08-16 03:25:00,